Regional Weather Roundup
Issued by NWS

Home | Current Version | Previous Version | Text Only | Print | Product List | Glossary Off
Versions: 1 2 3 4 5 6 7 8 9 10 11 12 13 14 15 16 17 18 19 20 21 22 23 24 25 26 27

000
ASUS45 KCYS 070210
RWRWY

WYOMING REGIONAL WEATHER ROUNDUP
NATIONAL WEATHER SERVICE CHEYENNE WY
700 PM MST TUE DEC 06 2016

NOTE:  "FAIR" INDICATES FEW OR NO CLOUDS BELOW 12,000 FEET
WITH NO SIGNIFICANT WEATHER AND/OR OBSTRUCTIONS TO VISIBILITY.

WYZ001-070300-
YELLOWSTONE NATIONAL PARK

CITY           SKY/WX    TMP DP  RH WIND       PRES   REMARKS
LK YELLOWSTONE   N/A      5   1  83 CALM      29.73R
W YELLOWSTONE  NOT AVBL

$$
WYZ002>013-054>058-071-098>099-070300-
NORTHERN WYOMING

CITY           SKY/WX    TMP DP  RH WIND       PRES   REMARKS
JACKSON        CLOUDY     0  -4  85 N5        29.81R WCI -10
CODY           FLURRIES   7   2  80 NE7       29.97R WCI  -5
GREYBULL       FAIR      11   2  67 NW17      30.00R WCI  -6
WORLAND        CLOUDY    10   7  87 S3        29.98R
SHERIDAN       CLOUDY     7   1  76 NW7       30.07R WCI  -5
BUFFALO        CLOUDY     6   0  76 NW9       30.00R WCI  -8
GILLETTE       FAIR       1  -2  87 NW8       30.02R WCI -13
HULETT         FAIR       1  -4  78 NW5       30.03S WCI  -8
NEWCASTLE      FAIR       5  -2  72 NW12      30.00S WCI -11

$$
WYZ014>020-022>026-101>103-070300-
CENTRAL WYOMING

CITY           SKY/WX    TMP DP  RH WIND       PRES   REMARKS
BIG PINEY      FAIR      -2  -6  83 N8        29.77R WCI -17
PINEDALE       CLOUDY     3  -4  72 N3        29.78R
DUBOIS         CLOUDY     7   0  72 SE8       29.75R WCI  -6
LANDER         MOCLDY    12  -1  56 CALM      29.86R
RIVERTON       FAIR       9   1  70 N7        29.87R WCI  -2
CASPER         MOCLDY     0  -3  87 N6        29.93R WCI -12
DOUGLAS        CLOUDY     6   0  76 CALM      29.98R

$$
WYZ021-027>030-104>119-070300-
SOUTHERN WYOMING

CITY           SKY/WX    TMP DP  RH WIND       PRES   REMARKS
EVANSTON       CLOUDY     8   2  76 S3        29.76R
FORT BRIDGER   FLURRIES   6   2  84 W5        29.80R WCI  -3
ROCK SPRINGS   FLURRIES  12   9  87 NW7       29.76S WCI   1
DIXON          LGT SNOW  19  16  87 CALM      29.78R
RAWLINS        CLOUDY    10  -4  53 NE9       29.76R WCI  -3
SARATOGA       CLOUDY    14  10  85 SW3       29.73S
LARAMIE        LGT SNOW  11   7  84 SE15      29.73R FOG     WCI  -5
CHEYENNE       LGT SNOW  16   9  74 E8        29.83S WCI   5
TORRINGTON     CLOUDY    14   3  61 N9        29.98R WCI   2
PINE BLUFFS    CLOUDY    19   0  42 E6        29.91R WCI  11

$$




USA.gov is the U.S. government's official web portal to all federal, state and local government web resources and services.